Weather History for Fort Campbell, KY

Change the Weather History Date:

Monday, October 15, 2012

  Actual Average Record
Temperature  
Mean Temperature 60 °F -  
Max Temperature 71 °F 69 °F 83 °F (2007)
Min Temperature 48 °F 46 °F 35 °F (2006)
Degree Days  
Heating Degree Days 6    
Growing Degree Days 10 (Base 50)    
Moisture  
Dew Point 48 °F    
Average Humidity 80    
Maximum Humidity 100    
Minimum Humidity 35    
Precipitation  
Precipitation 0.00 in - - ()
Sea Level Pressure  
Sea Level Pressure 29.99 in    
Wind  
Wind Speed 3 mph (West)    
Max Wind Speed 13 mph    
Max Gust Speed 17 mph    
Visibility 7 miles    
Events Fog    
Averages and records for this station are not official NWS values.
T = Trace of Precipitation, MM = Missing Value Source: NWS Daily Summary

Daily Weather History Graph

Daily Weather History Graph

Search for Another Location

Airport:

Trip Planner

Search our weather history database for the weather conditions in past years. The results will help you decide how hot, cold, wet, or windy it might be!

Date:

Astronomy

Oct. 15, 2012 Rise Set
Actual Time 6:57 AM CDT 6:12 PM CDT
Civil Twilight 6:31 AM CDT 6:38 PM CDT
Nautical Twilight 6:01 AM CDT 7:08 PM CDT
Astronomical Twilight 5:31 AM CDT 7:38 PM CDT
Moon 7:06 AM CDT (10/15) 6:14 PM CDT (10/15)
Length of Visible Light 12h 07m
Length of Day
11h 15m
New Moon, 0% of the Moon is Illuminated
Oct 15
New Moon
Oct 21
First Quarter
Oct 29
Full
Nov 6
Last Quarter
Nov 13
New

Hourly Weather History & Observations

Time (CDT) Temp. Dew Point Humidity Pressure Visibility Wind Dir Wind Speed Gust Speed Precip Events Conditions
12:55 AM 58.3 °F 54.7 °F 88% 29.92 in 10.0 mi WSW 3.5 mph - N/A   Clear
1:55 AM 56.7 °F 54.7 °F 93% 29.93 in 10.0 mi West 3.5 mph - N/A   Clear
2:55 AM 58.3 °F 54.9 °F 88% 29.93 in 10.0 mi WNW 5.8 mph - N/A   Clear
3:55 AM 55.8 °F 53.6 °F 92% 29.96 in 10.0 mi WNW 3.5 mph - N/A   Clear
4:55 AM 54.0 °F 53.4 °F 98% 29.96 in 10.0 mi WNW 4.6 mph - N/A   Clear
5:55 AM 50.5 °F 50.5 °F 100% 29.98 in 10.0 mi SW 3.5 mph - N/A   Clear
6:40 AM 48.2 °F 48.2 °F 100% 29.99 in 2.5 mi Calm Calm - N/A   Clear
6:42 AM 48.2 °F 48.2 °F 100% 29.99 in 1.8 mi Calm Calm - N/A   Clear
6:51 AM 48.2 °F 48.2 °F 100% 29.99 in 1.0 mi Calm Calm - N/A   Clear
6:54 AM 48.2 °F 48.2 °F 100% 29.99 in 0.5 mi Calm Calm - N/A Fog Fog
6:55 AM 48.7 °F 48.6 °F 99% 29.99 in 0.5 mi Calm Calm - N/A Fog Fog
6:57 AM 48.2 °F 48.2 °F 100% 29.99 in 0.2 mi Calm Calm - N/A Fog Fog
6:59 AM 48.2 °F 48.2 °F 100% 29.99 in 0.2 mi Calm Calm - N/A Fog Fog
7:04 AM 48.2 °F 48.2 °F 100% 30.00 in 0.2 mi Calm Calm - N/A Fog Fog
7:08 AM 48.2 °F 48.2 °F 100% 30.00 in 0.2 mi Calm Calm - N/A Fog Fog
7:26 AM 48.2 °F 48.2 °F 100% 30.00 in 0.2 mi WSW 3.5 mph - N/A Fog Fog
7:28 AM 48.2 °F 48.2 °F 100% 30.00 in 0.5 mi WSW 3.5 mph - N/A Fog Fog
7:34 AM 48.2 °F 48.2 °F 100% 30.00 in 3.0 mi WSW 3.5 mph - N/A   Clear
7:55 AM 50.0 °F 50.0 °F 100% 30.00 in 10.0 mi WSW 3.5 mph - N/A   Clear
8:55 AM 57.9 °F 56.5 °F 95% 30.01 in 10.0 mi WSW 5.8 mph - N/A   Clear
9:55 AM 62.8 °F 52.9 °F 70% 30.01 in 10.0 mi West 8.1 mph - N/A   Clear
10:55 AM 65.7 °F 47.8 °F 53% 30.03 in 10.0 mi WNW 6.9 mph - N/A   Clear
11:55 AM 67.5 °F 43.5 °F 42% 30.02 in 10.0 mi WNW 9.2 mph - N/A   Clear
12:55 PM 68.7 °F 44.8 °F 42% 30.01 in 10.0 mi West 8.1 mph 16.1 mph N/A   Clear
1:55 PM 70.0 °F 43.5 °F 38% 29.99 in 10.0 mi West 12.7 mph 17.3 mph N/A   Clear
2:55 PM 71.1 °F 43.0 °F 36% 29.98 in 10.0 mi West 12.7 mph - N/A   Clear
3:55 PM 70.2 °F 41.5 °F 35% 29.97 in 10.0 mi West 10.4 mph - N/A   Clear
4:55 PM 69.3 °F 41.9 °F 37% 29.97 in 10.0 mi WNW 9.2 mph - N/A   Clear
5:55 PM 66.2 °F 42.6 °F 42% 29.97 in 10.0 mi WNW 5.8 mph - N/A   Clear
6:55 PM 60.8 °F 45.3 °F 57% 29.97 in 10.0 mi Calm Calm - N/A   Clear
7:55 PM 55.4 °F 46.4 °F 72% 29.98 in 10.0 mi Calm Calm - N/A   Clear
8:55 PM 52.7 °F 47.5 °F 82% 29.99 in 10.0 mi Calm Calm - N/A   Clear
9:55 PM 52.3 °F 47.8 °F 85% 29.99 in 10.0 mi Calm Calm - N/A   Clear
10:55 PM 50.9 °F 45.7 °F 82% 30.00 in 10.0 mi Calm Calm - N/A   Clear
11:55 PM 48.9 °F 45.9 °F 89% 30.00 in 10.0 mi Calm Calm - N/A   Clear